OneWeb SL0096

operational
NORAD ID: 45439 Int'l Des: 2020-020 Owner: ONEWEB Country: UK Constellation: oneweb
LEOCIRCULARPOLARONEWEB_TYPE

关于 OneWeb SL0096

正在加载描述...

实时位置

正在加载3D地球...

即将过境

高度历史

Altitude vs Time

uPlot chart will show altitude changes over time

两行轨道根数

1 45439U 20020R 25303.32725440 .00000400 00000-0 10939-2 0 9997
2 45439 87.8852 66.8218 0001593 106.5774 253.5529 13.11419941272538
Epoch: Oct 30, 2025 • Age: 17 hours

当前状态

高度 1219.8 km
速度 7.25 km/s
星下点 23.78°N, 170.77°W
发射日期 Mar 21, 2020
运行时间 5.6 years
类型 internet

技术详情

分类 Payload
质量 148.00 kg
干质量 140.00 kg
总质量 148.00 kg
长度 1.30 m
直径 1.00 m
跨度 5.00 m
形状 Trapezoid+2 pan
制造商 ONEWUS
平台类型 ARROW
阶段状态 In Orbit
所有者/国家 ONEWEB/UK

大型星座

Loading constellations...